SCP
0 0 0 1 1 1 1 1 1 0 0 0 0 0 0 0 0 0 0 0 0 0 0 1 1 1 1 1 1 0 0 0 0 0 0 0 0 0 0 0 0 0 0
0 0 0 0 1 1 1 1 1 0 0 0 0 0 0 0 0 0 0 0 0 0 0 1 1 1 1 1 0 0 0 0 0 0 0 0 0 0 0 0 0 0 0
0 0 0 0 0 0 1 1 1 0 0 0 0 0 0 0 0 0 0 0 0 0 0 1 1 1 1 0 0 0 0 0 0 0 0 0 0 0 0 0 0 0 0
0 0 0 0 0 0 0 0 0 0 0 0 0 0 0 0 0 0 0 0 0 0 0 0 0 1 1 0 0 0 0 0 0 0 0 0 0 0 0 0 0 0 0
0 0 0 0 0 0 0 0 0 0 0 0 0 0 0 0 0 0 0 0 0 0 0 0 0 0 1 0 0 0 0 0 0 0 0 0 0 0 0 0 0 0 0
0 0 0 0 0 0 0 0 0 0 0 0 0 0 0 0 0 0 0 0 0 0 0 0 0 0 0 0 0 0 0 0 0 0 0 0 0 0 0 0 0 0 0
0 0 0 0 0 0 0 0 0 0 0 0 0 0 0 0 0 0 0 0 0 0 0 0 0 0 0 0 0 0 0 0 0 0 0 0 0 0 0 0 0 0 0
0 0 0 0 0 0 0 0 0 0 0 0 0 0 0 0 0 0 0 0 0 0 0 0 0 0 0 0 0 0 0 0 0 0 0 0 0 0 0 0 0 0 0
0 0 0 0 0 0 0 0 0 0 0 0 0 0 0 0 0 0 0 0 0 0 0 0 0 0 0 0 0 0 0 0 0 0 0 0 0 0 0 0 0 0 0
0 0 0 0 0 0 0 0 0 0 0 0 0 0 0 0 0 0 0 0 0 0 0 0 0 0 0 0 0 0 0 0 0 0 0 0 0 0 0 0 0 0 0
0 0 0 0 0 0 0 0 0 0 0 0 0 0 0 0 0 0 0 0 0 0 0 0 0 0 0 0 0 0 0 0 0 0 0 0 0 0 0 0 0 0 0
0 0 0 0 0 0 0 0 0 0 0 0 0 0 0 0 0 0 0 0 0 0 0 0 0 0 0 0 0 0 0 0 0 0 0 0 0 0 0 0 0 0 0
0 0 0 0 0 0 0 0 0 0 0 0 0 0 0 0 0 0 0 0 0 0 0 0 0 0 0 0 0 0 0 0 0 0 0 0 0 0 0 0 0 0 0
0 0 0 0 0 0 0 0 0 0 0 0 0 0 0 0 0 0 0 0 0 0 0 0 0 0 0 0 0 0 0 0 0 0 0 0 0 0 0 0 0 0 0
0 0 0 0 0 0 0 0 0 0 0 0 0 0 0 0 0 0 0 0 0 0 0 0 0 0 0 0 0 0 0 0 0 0 0 0 0 0 0 0 0 0 0
0 0 0 0 0 0 0 0 0 0 0 0 0 0 0 0 0 0 0 0 0 0 0 0 0 0 0 0 0 0 0 0 0 0 0 0 0 0 0 0 0 0 0
0 0 0 0 0 0 0 0 0 0 0 0 0 0 0 0 0 0 0 0 0 0 0 0 0 0 0 0 0 0 0 0 0 0 0 0 0 0 0 0 0 0 0
0 0 0 0 0 0 0 0 0 0 0 0 0 0 0 0 0 0 0 0 0 0 0 0 0 0 0 0 0 0 0 0 0 0 0 0 0 0 0 0 0 0 0
0 0 0 0 0 0 0 0 0 0 0 0 0 0 0 0 0 0 0 0 0 0 0 0 0 0 0 0 0 0 0 0 0 0 0 0 0 0 0 0 0 0 0
0 0 0 0 0 0 0 0 0 0 0 0 0 0 0 0 0 0 0 0 0 0 0 0 0 0 0 0 0 0 0 0 0 0 0 0 0 0 0 0 0 0 0
0 0 0 0 0 0 0 0 0 0 0 0 0 0 0 0 0 0 0 0 0 0 0 0 0 0 0 0 0 0 0 0 0 0 0 0 0 0 0 0 0 0 0
0 0 0 0 0 0 0 0 0 0 0 0 0 0 0 0 0 0 0 0 0 0 0 0 0 0 0 0 0 0 0 0 0 0 0 0 0 0 0 0 0 0 0
0 0 0 0 0 0 0 0 0 0 0 0 0 0 0 0 0 0 0 0 0 0 0 0 0 0 0 0 0 0 0 0 0 0 0 0 0 0 0 0 0 0 0
0 0 0 0 0 0 0 0 0 0 0 0 0 0 0 0 0 0 0 0 0 0 0 0 0 0 0 0 0 0 0 0 0 0 0 0 0 0 0 0 0 0 0
0 0 0 0 0 0 0 0 0 0 0 0 0 0 0 0 0 0 0 0 0 0 0 0 0 0 0 0 0 0 0 0 0 0 0 0 0 0 0 0 0 0 0
0 0 0 0 0 0 0 0 0 0 0 0 0 0 0 0 0 0 0 0 0 0 0 0 0 0 0 0 0 0 0 0 0 0 0 0 0 0 0 0 0 0 0
Wind_Speed
4 2 1 1 1 2 2 3 2 2 2 2 1 1 1 0 0 1 2 3 3 3 3 2 2 3 3 3 4 3 4 2 3 3 2 2 3 2 1 1 1 1 2
3 2 1 0 1 3 3 3 3 3 3 2 2 1 1 1 1 1 1 2 2 3 3 3 3 3 3 3 3 3 2 2 2 3 3 1 1 1 1 0 1 1 1
3 3 1 1 2 2 3 3 4 3 3 2 2 2 2 1 1 0 1 1 2 3 3 4 4 3 3 4 4 4 4 3 1 1 3 4 3 1 1 1 0 1 1
2 2 2 2 2 2 3 3 3 3 3 3 3 4 3 2 2 2 2 2 3 3 3 4 4 4 3 4 4 3 3 4 3 1 1 1 3 3 1 1 1 0 1
2 2 2 2 2 1 2 2 3 3 3 4 4 4 2 2 1 1 2 2 2 3 3 3 4 4 3 4 4 3 3 3 3 3 2 2 2 2 3 2 1 0 1
2 2 2 2 2 1 1 1 2 2 3 3 4 4 4 2 2 2 2 2 1 2 2 3 3 3 3 4 4 4 4 3 3 3 3 3 3 3 3 3 2 2 1
2 2 3 2 2 2 1 1 2 3 3 3 4 5 4 4 5 4 4 3 2 2 3 3 3 3 3 3 3 3 3 4 4 4 3 3 2 3 3 3 2 2 1
3 2 3 2 2 2 1 2 3 3 3 4 4 4 3 3 3 3 3 4 3 3 4 4 3 3 3 3 3 3 3 3 4 4 4 2 2 3 3 4 4 2 1
3 3 3 2 2 2 2 3 3 3 3 4 3 3 3 3 3 3 2 2 2 2 3 3 4 4 4 4 4 3 3 3 3 4 4 3 2 3 2 3 4 5 3
3 4 4 3 3 2 2 2 2 3 3 3 3 2 3 3 2 2 2 2 2 2 3 3 4 4 4 4 4 3 4 4 4 3 4 3 2 2 3 3 2 2 4
3 3 3 3 3 2 2 2 1 2 2 2 2 2 2 2 2 2 2 2 2 3 4 4 4 4 4 4 4 4 4 5 4 3 4 4 3 3 2 3 2 2 3
3 3 3 3 3 3 2 2 1 1 1 2 2 2 1 1 2 2 1 2 2 2 3 3 3 4 4 4 5 5 5 5 5 5 4 5 4 4 3 3 3 3 3
3 3 3 3 3 3 2 2 2 1 1 0 1 1 1 1 2 2 2 2 2 2 2 2 3 4 4 4 4 5 5 5 5 5 5 5 5 5 4 4 4 3 3
2 3 3 3 3 3 2 2 2 1 0 0 0 1 1 1 2 1 1 2 2 2 2 2 3 3 3 4 4 4 4 4 4 5 5 6 6 6 6 5 5 4 4
3 3 3 4 4 4 3 2 2 2 1 0 1 1 1 1 0 0 1 1 1 1 2 2 1 2 2 3 4 4 5 4 4 4 4 5 6 8 7 5 5 6 5
3 4 4 4 4 4 4 3 2 2 1 1 1 1 1 0 0 0 0 0 1 1 1 2 2 2 2 3 5 4 4 4 4 4 4 4 5 7 9 9 8 8 7
3 3 4 4 4 4 4 3 2 1 1 1 1 1 1 1 1 1 1 0 0 0 1 1 2 2 3 4 5 5 3 4 4 4 4 3 4 5 4 6 6 7 9
3 3 3 4 3 3 4 3 2 1 1 1 2 1 1 1 1 1 0 1 0 1 1 1 2 2 2 3 4 5 3 2 3 4 4 4 4 4 5 4 3 3 5
3 3 3 3 3 3 3 2 2 2 2 2 2 2 1 1 1 1 1 1 0 1 1 1 1 2 2 3 4 4 2 2 3 3 3 4 4 6 7 5 4 3 3
2 2 3 2 3 4 3 2 2 3 3 3 3 2 1 1 1 1 2 1 1 1 1 1 1 2 2 3 4 4 2 2 2 2 3 5 5 6 7 5 4 4 4
2 2 2 3 3 3 2 3 3 3 4 3 2 2 2 1 1 1 1 1 1 1 1 1 1 1 1 2 3 4 2 2 2 2 2 2 5 6 6 5 4 5 4
3 3 3 4 4 3 3 3 3 4 3 3 2 2 2 2 1 1 1 1 0 0 1 1 1 1 1 1 2 3 3 2 2 2 2 2 4 4 5 4 4 5 4
3 3 3 4 4 4 3 3 4 4 3 3 3 3 2 2 1 1 1 1 1 0 0 0 1 2 1 1 2 2 3 3 1 2 3 3 3 3 2 3 4 3 2
3 3 3 4 5 5 4 3 4 3 3 3 3 3 2 2 2 2 1 1 1 1 1 1 1 1 1 1 1 1 1 1 1 1 1 1 2 1 1 1 1 1 2
3 3 3 3 4 5 5 5 4 3 3 3 3 3 2 2 2 2 2 2 1 1 1 1 1 1 2 3 3 1 1 1 1 1 1 0 0 0 0 0 0 1 1
3 3 3 4 4 4 5 5 4 3 3 3 3 3 2 2 2 2 3 5 4 4 3 3 2 2 3 3 3 3 3 3 2 1 1 1 1 2 2 2 1 1 2
Wind_Direction
278 293 281 214 194 188 185 181 178 166 149 139 149 143 157 138 118 151 133 133 136 136 134 137 138 140 145 146 140 123 120 121 130 104 80 39 40 51 41 40 74 88 101
320 327 335 326 230 206 196 188 182 176 177 176 174 152 134 177 161 114 128 140 149 157 155 147 157 157 141 139 145 131 126 129 148 133 124 103 13 353 38 58 139 134 104
289 310 314 260 261 232 207 200 192 184 181 161 128 89 69 56 80 111 180 181 174 178 168 162 159 165 161 166 168 158 148 154 173 161 149 155 186 200 357 358 56 120 139
287 299 302 299 267 245 217 206 196 187 181 164 161 157 170 190 208 195 196 193 188 186 179 168 165 168 167 170 177 170 160 151 165 168 123 131 140 149 154 331 349 51 180
285 289 284 274 280 256 218 202 194 192 188 187 184 183 196 202 173 168 182 193 199 194 185 176 171 174 174 176 174 166 171 167 169 168 153 127 103 128 145 180 228 323 264
307 306 298 308 333 344 340 203 190 203 199 199 195 196 198 189 172 189 201 202 201 203 198 188 183 184 181 181 182 175 178 183 174 172 165 161 159 171 157 165 183 211 251
336 340 335 327 328 325 303 244 210 214 208 207 208 207 205 196 198 200 203 204 200 209 210 200 194 193 191 183 175 175 183 186 182 181 184 181 175 155 152 148 158 182 231
339 323 308 300 303 292 270 244 229 224 211 211 216 211 203 201 208 211 209 211 213 210 201 195 194 194 189 185 179 179 189 187 191 191 182 181 184 170 167 160 153 157 205
334 329 319 309 304 299 270 246 234 231 221 219 218 212 206 207 210 211 203 207 213 206 198 194 192 191 191 188 181 189 190 183 190 187 181 179 184 175 174 167 166 161 181
331 334 331 321 312 298 290 263 232 230 221 212 214 221 216 216 208 194 200 201 199 191 194 197 195 194 195 191 186 186 182 179 187 181 176 179 180 174 161 164 167 163 168
311 319 320 319 320 330 335 326 278 240 222 210 213 217 216 210 196 198 206 200 195 189 197 200 196 194 195 191 187 191 180 181 182 179 178 186 175 175 166 160 164 168 158
310 317 321 330 339 342 339 334 331 287 247 226 215 218 218 203 201 214 215 201 200 199 202 197 194 195 192 189 189 191 188 185 188 191 186 194 181 179 175 175 180 181 175
322 331 336 333 333 334 329 319 309 298 296 196 203 223 223 209 215 222 208 196 194 197 197 191 196 197 192 192 195 190 191 194 196 195 197 200 187 191 183 182 188 185 179
312 328 330 325 325 323 318 310 303 301 307 151 183 222 242 228 220 216 189 187 181 185 198 205 206 200 192 194 195 191 196 199 201 202 203 201 195 195 186 185 189 179 170
328 326 323 324 329 329 321 321 319 322 318 313 270 264 270 264 231 187 173 170 170 184 188 193 200 194 195 200 197 194 196 196 199 205 208 209 202 199 194 189 185 180 176
314 319 323 328 329 328 323 319 326 327 335 318 297 310 327 346 341 296 230 164 175 179 169 185 194 201 217 209 203 194 191 191 195 205 209 209 203 205 206 207 200 193 185
301 309 310 310 312 314 313 307 312 331 346 337 331 334 350 3 353 351 15 340 254 174 192 204 199 214 221 206 204 198 188 190 199 202 199 206 205 201 195 205 208 212 212
298 301 307 313 315 319 323 325 337 351 351 347 340 343 6 13 5 12 349 313 295 233 237 237 224 218 225 210 206 201 190 190 201 201 200 202 199 198 188 181 191 213 216
288 295 303 306 320 332 334 351 359 359 3 349 333 328 340 354 354 328 295 281 257 265 254 242 231 230 246 225 207 189 177 192 209 208 205 201 202 206 197 182 192 216 227
327 327 332 346 351 342 350 19 8 2 347 333 325 321 321 320 298 286 286 289 252 250 262 274 246 228 242 239 215 191 179 194 211 218 216 212 212 213 207 194 192 218 227
343 356 5 5 350 344 7 17 7 343 325 329 334 337 337 325 303 310 312 309 326 336 322 307 301 247 243 238 216 200 192 192 201 216 217 216 216 220 219 214 208 224 215
0 8 15 6 359 5 21 15 349 328 336 345 346 341 339 339 355 13 352 353 15 10 335 346 340 329 307 291 231 218 221 212 204 214 209 210 218 226 229 230 224 226 218
358 1 13 7 4 7 15 7 336 339 351 1 355 347 351 352 359 24 15 359 358 330 301 329 310 316 327 318 301 261 242 239 238 203 202 217 227 233 237 233 232 229 207
358 4 18 16 2 0 4 349 339 348 3 3 355 359 4 5 10 13 14 360 325 295 297 298 293 302 310 305 297 283 269 241 242 196 184 212 220 220 237 255 248 226 206
358 9 13 12 359 358 358 352 351 2 8 2 2 4 9 7 6 7 4 345 319 287 280 265 252 256 279 279 278 273 253 223 208 170 103 86 187 201 215 231 237 228 214
8 11 9 5 358 0 357 353 353 1 8 5 4 359 356 358 1 4 2 8 353 342 332 310 295 295 284 288 277 272 266 252 232 202 186 216 222 222 223 225 237 235 231